Time,TemperatureF,DewpointF,PressureIn,WindDirection,WindDirectionDegrees,WindSpeedMPH,WindSpeedGustMPH,Humidity,HourlyPrecipIn,Conditions,Clouds,dailyrainin,SoftwareType,DateUTC
2013-12-06 00:02:00,5.3,-0.1,30.16,NW,322,1.0,1.0,78,0.00,,,0.00,Wunderground v.1.15,2013-12-06 06:02:00,
2013-12-06 00:12:00,5.1,0.0,30.17,North,5,2.0,2.0,79,0.00,,,0.00,Wunderground v.1.15,2013-12-06 06:12:00,
2013-12-06 00:22:00,5.2,-0.2,30.17,West,267,3.0,5.0,78,0.00,,,0.00,Wunderground v.1.15,2013-12-06 06:22:00,
2013-12-06 00:32:00,5.1,0.0,30.18,WNW,291,3.0,6.0,79,0.00,,,0.00,Wunderground v.1.15,2013-12-06 06:32:00,
2013-12-06 00:42:00,4.6,-0.5,30.19,WSW,245,2.0,2.0,79,0.00,,,0.00,Wunderground v.1.15,2013-12-06 06:42:00,
2013-12-06 00:52:00,4.0,-0.8,30.19,NNW,332,1.0,1.0,80,0.00,,,0.00,Wunderground v.1.15,2013-12-06 06:52:00,
2013-12-06 01:02:00,3.9,-0.9,30.20,West,270,1.0,3.0,80,0.00,,,0.00,Wunderground v.1.15,2013-12-06 07:02:00,
2013-12-06 01:12:00,3.5,-1.0,30.20,West,263,1.0,1.0,81,0.00,,,0.00,Wunderground v.1.15,2013-12-06 07:12:00,
2013-12-06 01:22:00,3.1,-1.2,30.20,SW,234,1.0,3.0,82,0.00,,,0.00,Wunderground v.1.15,2013-12-06 07:22:00,
2013-12-06 01:32:00,2.8,-1.7,30.21,WSW,244,1.0,1.0,81,0.00,,,0.00,Wunderground v.1.15,2013-12-06 07:32:00,
2013-12-06 01:42:00,2.6,-1.6,30.22,WSW,243,2.0,2.0,82,0.00,,,0.00,Wunderground v.1.15,2013-12-06 07:42:00,
2013-12-06 01:52:00,2.9,-1.3,30.22,West,276,3.0,3.0,82,0.00,,,0.00,Wunderground v.1.15,2013-12-06 07:52:00,
2013-12-06 02:02:00,3.1,-1.4,30.22,West,265,2.0,2.0,81,0.00,,,0.00,Wunderground v.1.15,2013-12-06 08:02:00,
2013-12-06 02:12:00,3.2,-1.3,30.23,North,5,2.0,2.0,81,0.00,,,0.00,Wunderground v.1.15,2013-12-06 08:12:00,
2013-12-06 02:22:00,2.9,-1.6,30.23,WNW,303,2.0,3.0,81,0.00,,,0.00,Wunderground v.1.15,2013-12-06 08:22:00,
2013-12-06 04:32:00,0.4,-3.3,30.24,WNW,303,2.0,5.0,84,0.00,,,0.00,Wunderground v.1.15,2013-12-06 10:32:00,
2013-12-06 04:42:00,0.5,-3.2,30.24,West,273,2.0,2.0,84,0.00,,,0.00,Wunderground v.1.15,2013-12-06 10:42:00,
2013-12-06 04:52:00,0.3,-3.4,30.25,NW,309,1.0,1.0,84,0.00,,,0.00,Wunderground v.1.15,2013-12-06 10:52:00,
2013-12-06 05:02:00,0.2,-3.5,30.25,WNW,282,2.0,2.0,84,0.00,,,0.00,Wunderground v.1.15,2013-12-06 11:02:00,
2013-12-06 05:12:00,0.2,-3.5,30.25,WSW,246,3.0,3.0,84,0.00,,,0.00,Wunderground v.1.15,2013-12-06 11:12:00,
2013-12-06 05:22:00,0.1,-3.6,30.25,NNW,337,3.0,3.0,84,0.00,,,0.00,Wunderground v.1.15,2013-12-06 11:22:00,
2013-12-06 05:32:00,0.2,-3.5,30.26,West,272,2.0,2.0,84,0.00,,,0.00,Wunderground v.1.15,2013-12-06 11:32:00,
2013-12-06 05:42:00,-0.2,-4.1,30.26,NW,305,1.0,3.0,83,0.00,,,0.00,Wunderground v.1.15,2013-12-06 11:42:00,
2013-12-06 05:52:00,-0.1,-3.8,30.27,NNW,348,2.0,6.0,84,0.00,,,0.00,Wunderground v.1.15,2013-12-06 11:52:00,
2013-12-06 06:02:00,-0.2,-4.1,30.27,West,264,4.0,4.0,83,0.00,,,0.00,Wunderground v.1.15,2013-12-06 12:02:00,
2013-12-06 06:12:00,-0.2,-4.1,30.27,WNW,285,3.0,3.0,83,0.00,,,0.00,Wunderground v.1.15,2013-12-06 12:12:00,
2013-12-06 06:22:00,-0.2,-4.1,30.27,NNW,338,4.0,4.0,83,0.00,,,0.00,Wunderground v.1.15,2013-12-06 12:22:00,
2013-12-06 06:32:00,0.0,-4.2,30.28,NNW,336,3.0,3.0,82,0.00,,,0.00,Wunderground v.1.15,2013-12-06 12:32:00,
2013-12-06 06:42:00,0.1,-4.1,30.28,West,274,3.0,3.0,82,0.00,,,0.00,Wunderground v.1.15,2013-12-06 12:42:00,
2013-12-06 06:52:00,0.1,-4.3,30.29,WNW,283,4.0,4.0,81,0.00,,,0.00,Wunderground v.1.15,2013-12-06 12:52:00,
2013-12-06 07:02:00,0.1,-4.3,30.30,NW,322,2.0,6.0,81,0.00,,,0.00,Wunderground v.1.15,2013-12-06 13:02:00,
2013-12-06 07:12:00,0.2,-4.0,30.30,ENE,64,3.0,3.0,82,0.00,,,0.00,Wunderground v.1.15,2013-12-06 13:12:00,
2013-12-06 07:22:00,0.1,-4.1,30.30,SSW,197,3.0,3.0,82,0.00,,,0.00,Wunderground v.1.15,2013-12-06 13:22:00,
2013-12-06 07:32:00,0.0,-4.2,30.31,SW,229,3.0,4.0,82,0.00,,,0.00,Wunderground v.1.15,2013-12-06 13:32:00,
2013-12-06 07:42:00,-0.1,-4.3,30.31,WNW,293,4.0,4.0,82,0.00,,,0.00,Wunderground v.1.15,2013-12-06 13:42:00,
2013-12-06 07:52:00,-0.1,-4.3,30.32,West,281,3.0,3.0,82,0.00,,,0.00,Wunderground v.1.15,2013-12-06 13:52:00,
2013-12-06 08:02:00,0.2,-4.0,30.32,West,272,2.0,3.0,82,0.00,,,0.00,Wunderground v.1.15,2013-12-06 14:02:00,
2013-12-06 08:12:00,0.6,-3.6,30.32,West,265,1.0,1.0,82,0.00,,,0.00,Wunderground v.1.15,2013-12-06 14:12:00,
2013-12-06 08:22:00,0.9,-3.3,30.32,WSW,253,2.0,2.0,82,0.00,,,0.00,Wunderground v.1.15,2013-12-06 14:22:00,
2013-12-06 08:32:00,1.4,-2.8,30.33,NNW,343,2.0,5.0,82,0.00,,,0.00,Wunderground v.1.15,2013-12-06 14:32:00,
2013-12-06 08:42:00,1.8,-2.7,30.33,WNW,295,4.0,7.0,81,0.00,,,0.00,Wunderground v.1.15,2013-12-06 14:42:00,
2013-12-06 08:52:00,1.5,-3.0,30.33,West,278,5.0,5.0,81,0.00,,,0.00,Wunderground v.1.15,2013-12-06 14:52:00,
2013-12-06 09:02:00,1.6,-3.1,30.34,SW,216,5.0,5.0,80,0.00,,,0.00,Wunderground v.1.15,2013-12-06 15:02:00,
2013-12-06 09:12:00,2.1,-2.9,30.35,NNW,327,4.0,4.0,79,0.00,,,0.00,Wunderground v.1.15,2013-12-06 15:12:00,
2013-12-06 09:22:00,2.7,-2.3,30.35,West,263,4.0,4.0,79,0.00,,,0.00,Wunderground v.1.15,2013-12-06 15:22:00,
2013-12-06 09:32:00,2.9,-2.7,30.36,West,259,4.0,4.0,77,0.00,,,0.00,Wunderground v.1.15,2013-12-06 15:32:00,
2013-12-06 09:42:00,3.5,-2.1,30.36,West,266,3.0,3.0,77,0.00,,,0.00,Wunderground v.1.15,2013-12-06 15:42:00,
2013-12-06 09:52:00,4.7,-0.9,30.36,West,266,2.0,3.0,77,0.00,,,0.00,Wunderground v.1.15,2013-12-06 15:52:00,
2013-12-06 10:02:00,4.8,-1.4,30.36,WNW,293,4.0,4.0,75,0.00,,,0.00,Wunderground v.1.15,2013-12-06 16:02:00,
2013-12-06 10:12:00,5.9,-0.6,30.36,WNW,302,3.0,3.0,74,0.00,,,0.00,Wunderground v.1.15,2013-12-06 16:12:00,
2013-12-06 10:22:00,6.1,-1.0,30.36,NNW,338,4.0,4.0,72,0.00,,,0.00,Wunderground v.1.15,2013-12-06 16:22:00,
2013-12-06 10:32:00,6.5,-0.9,30.36,NW,324,4.0,4.0,71,0.00,,,0.00,Wunderground v.1.15,2013-12-06 16:32:00,
2013-12-06 10:42:00,6.7,-1.0,30.36,NNW,339,4.0,4.0,70,0.00,,,0.00,Wunderground v.1.15,2013-12-06 16:42:00,
2013-12-06 10:52:00,7.6,-0.5,30.36,West,271,3.0,3.0,69,0.00,,,0.00,Wunderground v.1.15,2013-12-06 16:52:00,
2013-12-06 11:02:00,8.3,-0.1,30.35,WNW,303,4.0,9.0,68,0.00,,,0.00,Wunderground v.1.15,2013-12-06 17:02:00,
2013-12-06 11:12:00,8.9,0.2,30.36,NW,316,3.0,4.0,67,0.00,,,0.00,Wunderground v.1.15,2013-12-06 17:12:00,
2013-12-06 11:22:00,9.5,0.4,30.36,WSW,255,4.0,4.0,66,0.00,,,0.00,Wunderground v.1.15,2013-12-06 17:22:00,
2013-12-06 11:32:00,10.0,0.6,30.36,WSW,243,3.0,5.0,65,0.00,,,0.00,Wunderground v.1.15,2013-12-06 17:32:00,
2013-12-06 11:42:00,10.7,0.9,30.36,West,276,4.0,6.0,64,0.00,,,0.00,Wunderground v.1.15,2013-12-06 17:42:00,
2013-12-06 11:52:00,11.7,1.9,30.36,North,360,4.0,4.0,64,0.00,,,0.00,Wunderground v.1.15,2013-12-06 17:52:00,
2013-12-06 12:02:00,12.0,2.1,30.35,WSW,240,4.0,4.0,64,0.00,,,0.00,Wunderground v.1.15,2013-12-06 18:02:00,
2013-12-06 12:12:00,12.6,2.7,30.35,NNE,31,3.0,3.0,64,0.00,,,0.00,Wunderground v.1.15,2013-12-06 18:12:00,
2013-12-06 12:22:00,12.8,2.6,30.35,NNE,14,3.0,3.0,63,0.00,,,0.00,Wunderground v.1.15,2013-12-06 18:22:00,
2013-12-06 12:32:00,13.0,2.4,30.35,SSW,205,3.0,3.0,62,0.00,,,0.00,Wunderground v.1.15,2013-12-06 18:32:00,
2013-12-06 12:42:00,13.1,2.2,30.35,WSW,253,3.0,3.0,61,0.00,,,0.00,Wunderground v.1.15,2013-12-06 18:42:00,
2013-12-06 12:52:00,13.5,2.5,30.35,West,278,4.0,4.0,61,0.00,,,0.00,Wunderground v.1.15,2013-12-06 18:52:00,
2013-12-06 13:02:00,13.7,2.7,30.35,West,261,4.0,8.0,61,0.00,,,0.00,Wunderground v.1.15,2013-12-06 19:02:00,
2013-12-06 13:12:00,13.4,2.4,30.35,NW,307,5.0,7.0,61,0.00,,,0.00,Wunderground v.1.15,2013-12-06 19:12:00,
2013-12-06 13:22:00,13.6,2.6,30.34,SW,222,5.0,14.0,61,0.00,,,0.00,Wunderground v.1.15,2013-12-06 19:22:00,
2013-12-06 13:32:00,13.6,2.6,30.34,NW,318,5.0,5.0,61,0.00,,,0.00,Wunderground v.1.15,2013-12-06 19:32:00,
2013-12-06 13:42:00,13.7,2.7,30.34,West,276,3.0,6.0,61,0.00,,,0.00,Wunderground v.1.15,2013-12-06 19:42:00,
2013-12-06 13:52:00,13.6,2.6,30.34,West,275,4.0,4.0,61,0.00,,,0.00,Wunderground v.1.15,2013-12-06 19:52:00,
2013-12-06 14:02:00,13.8,3.2,30.34,WNW,287,4.0,4.0,62,0.00,,,0.00,Wunderground v.1.15,2013-12-06 20:02:00,
2013-12-06 14:12:00,13.3,2.7,30.34,NNW,332,4.0,6.0,62,0.00,,,0.00,Wunderground v.1.15,2013-12-06 20:12:00,
2013-12-06 14:22:00,13.2,2.6,30.35,North,10,5.0,5.0,62,0.00,,,0.00,Wunderground v.1.15,2013-12-06 20:22:00,
2013-12-06 14:32:00,12.7,2.1,30.35,NW,314,6.0,7.0,62,0.00,,,0.00,Wunderground v.1.15,2013-12-06 20:32:00,
2013-12-06 14:42:00,12.3,2.4,30.35,North,351,4.0,5.0,64,0.00,,,0.00,Wunderground v.1.15,2013-12-06 20:42:00,
2013-12-06 14:52:00,12.3,2.4,30.36,NNW,339,4.0,9.0,64,0.00,,,0.00,Wunderground v.1.15,2013-12-06 20:52:00,
2013-12-06 15:02:00,11.9,2.0,30.36,NW,316,4.0,4.0,64,0.00,,,0.00,Wunderground v.1.15,2013-12-06 21:02:00,
2013-12-06 15:12:00,11.7,2.2,30.37,NW,311,3.0,3.0,65,0.00,,,0.00,Wunderground v.1.15,2013-12-06 21:12:00,
2013-12-06 15:22:00,11.4,1.9,30.37,WNW,292,3.0,3.0,65,0.00,,,0.00,Wunderground v.1.15,2013-12-06 21:22:00,
2013-12-06 15:32:00,10.9,1.4,30.37,WSW,247,2.0,2.0,65,0.00,,,0.00,Wunderground v.1.15,2013-12-06 21:32:00,
2013-12-06 15:42:00,10.7,1.2,30.38,NW,305,4.0,4.0,65,0.00,,,0.00,Wunderground v.1.15,2013-12-06 21:42:00,
2013-12-06 15:52:00,10.2,1.1,30.38,NW,311,3.0,4.0,66,0.00,,,0.00,Wunderground v.1.15,2013-12-06 21:52:00,
2013-12-06 16:02:00,9.5,1.1,30.38,WNW,295,1.0,1.0,68,0.00,,,0.00,Wunderground v.1.15,2013-12-06 22:02:00,
2013-12-06 16:12:00,9.1,1.0,30.38,WNW,300,1.0,1.0,69,0.00,,,0.00,Wunderground v.1.15,2013-12-06 22:12:00,
2013-12-06 16:22:00,8.6,1.1,30.38,WNW,298,2.0,2.0,71,0.00,,,0.00,Wunderground v.1.15,2013-12-06 22:22:00,
2013-12-06 16:32:00,8.3,0.8,30.39,NW,318,1.0,1.0,71,0.00,,,0.00,Wunderground v.1.15,2013-12-06 22:32:00,
2013-12-06 16:52:00,7.0,0.7,30.40,WNW,294,0.0,2.0,75,0.00,,,0.00,Wunderground v.1.15,2013-12-06 22:52:00,
2013-12-06 17:02:00,6.2,0.3,30.40,WNW,282,0.0,1.0,76,0.00,,,0.00,Wunderground v.1.15,2013-12-06 23:02:00,
2013-12-06 17:12:00,5.9,0.2,30.41,NW,311,1.0,1.0,77,0.00,,,0.00,Wunderground v.1.15,2013-12-06 23:12:00,
2013-12-06 17:22:00,6.2,0.5,30.41,West,275,1.0,1.0,77,0.00,,,0.00,Wunderground v.1.15,2013-12-06 23:22:00,
2013-12-06 17:32:00,6.1,0.4,30.42,West,266,1.0,1.0,77,0.00,,,0.00,Wunderground v.1.15,2013-12-06 23:32:00,
2013-12-06 17:42:00,6.0,0.3,30.42,WNW,289,1.0,3.0,77,0.00,,,0.00,Wunderground v.1.15,2013-12-06 23:42:00,
2013-12-06 17:52:00,5.9,0.0,30.42,NW,311,1.0,1.0,76,0.00,,,0.00,Wunderground v.1.15,2013-12-06 23:52:00,
2013-12-06 18:02:00,5.5,-0.4,30.43,NW,304,1.0,1.0,76,0.00,,,0.00,Wunderground v.1.15,2013-12-07 00:02:00,
2013-12-06 18:12:00,5.2,-0.2,30.43,NW,326,0.0,2.0,78,0.00,,,0.00,Wunderground v.1.15,2013-12-07 00:12:00,
2013-12-06 18:22:00,5.1,-0.3,30.43,West,261,1.0,1.0,78,0.00,,,0.00,Wunderground v.1.15,2013-12-07 00:22:00,
2013-12-06 18:32:00,5.2,-0.2,30.43,West,276,2.0,2.0,78,0.00,,,0.00,Wunderground v.1.15,2013-12-07 00:32:00,
2013-12-06 18:42:00,5.2,-0.2,30.44,WNW,282,3.0,3.0,78,0.00,,,0.00,Wunderground v.1.15,2013-12-07 00:42:00,
2013-12-06 18:52:00,5.3,-0.1,30.44,WSW,253,3.0,5.0,78,0.00,,,0.00,Wunderground v.1.15,2013-12-07 00:52:00,
2013-12-06 19:02:00,5.0,-0.4,30.44,West,279,2.0,2.0,78,0.00,,,0.00,Wunderground v.1.15,2013-12-07 01:02:00,
2013-12-06 19:12:00,4.9,-0.2,30.44,West,272,2.0,2.0,79,0.00,,,0.00,Wunderground v.1.15,2013-12-07 01:12:00,
2013-12-06 19:22:00,4.8,-0.3,30.44,West,278,2.0,4.0,79,0.00,,,0.00,Wunderground v.1.15,2013-12-07 01:22:00,
2013-12-06 19:32:00,4.6,-0.5,30.44,WNW,289,2.0,3.0,79,0.00,,,0.00,Wunderground v.1.15,2013-12-07 01:32:00,
2013-12-06 19:42:00,4.4,-0.4,30.44,West,272,2.0,2.0,80,0.00,,,0.00,Wunderground v.1.15,2013-12-07 01:42:00,
2013-12-06 19:52:00,4.1,-0.7,30.44,WNW,298,2.0,3.0,80,0.00,,,0.00,Wunderground v.1.15,2013-12-07 01:52:00,
2013-12-06 20:02:00,4.0,-0.8,30.45,WNW,293,2.0,2.0,80,0.00,,,0.00,Wunderground v.1.15,2013-12-07 02:02:00,
2013-12-06 20:12:00,3.7,-0.8,30.45,SSW,212,2.0,2.0,81,0.00,,,0.00,Wunderground v.1.15,2013-12-07 02:12:00,
2013-12-06 20:22:00,3.6,-1.2,30.45,West,274,2.0,2.0,80,0.00,,,0.00,Wunderground v.1.15,2013-12-07 02:22:00,
2013-12-06 20:32:00,3.6,-0.9,30.45,West,276,1.0,1.0,81,0.00,,,0.00,Wunderground v.1.15,2013-12-07 02:32:00,
2013-12-06 20:42:00,3.6,-1.2,30.45,NNW,332,2.0,4.0,80,0.00,,,0.00,Wunderground v.1.15,2013-12-07 02:42:00,
2013-12-06 20:52:00,3.6,-1.2,30.45,West,268,2.0,3.0,80,0.00,,,0.00,Wunderground v.1.15,2013-12-07 02:52:00,
2013-12-06 21:02:00,3.5,-1.3,30.46,NW,307,2.0,2.0,80,0.00,,,0.00,Wunderground v.1.15,2013-12-07 03:02:00,
2013-12-06 21:12:00,3.4,-1.1,30.45,WNW,293,2.0,3.0,81,0.00,,,0.00,Wunderground v.1.15,2013-12-07 03:12:00,
2013-12-06 21:22:00,3.4,-1.1,30.46,West,266,2.0,2.0,81,0.00,,,0.00,Wunderground v.1.15,2013-12-07 03:22:00,
2013-12-06 21:32:00,3.3,-1.5,30.46,West,280,2.0,2.0,80,0.00,,,0.00,Wunderground v.1.15,2013-12-07 03:32:00,
2013-12-06 21:42:00,3.2,-1.6,30.47,WNW,291,1.0,1.0,80,0.00,,,0.00,Wunderground v.1.15,2013-12-07 03:42:00,
2013-12-06 21:52:00,3.2,-1.3,30.47,WSW,252,1.0,1.0,81,0.00,,,0.00,Wunderground v.1.15,2013-12-07 03:52:00,
2013-12-06 22:02:00,3.1,-1.7,30.47,NW,304,2.0,3.0,80,0.00,,,0.00,Wunderground v.1.15,2013-12-07 04:02:00,
2013-12-06 22:12:00,3.1,-1.7,30.48,WSW,256,2.0,2.0,80,0.00,,,0.00,Wunderground v.1.15,2013-12-07 04:12:00,
2013-12-06 22:22:00,2.9,-1.9,30.48,West,263,2.0,2.0,80,0.00,,,0.00,Wunderground v.1.15,2013-12-07 04:22:00,
2013-12-06 22:32:00,2.9,-2.1,30.48,WSW,245,2.0,3.0,79,0.00,,,0.00,Wunderground v.1.15,2013-12-07 04:32:00,
2013-12-06 22:42:00,2.8,-2.2,30.48,NNW,330,3.0,4.0,79,0.00,,,0.00,Wunderground v.1.15,2013-12-07 04:42:00,
2013-12-06 22:52:00,2.5,-2.5,30.49,West,276,2.0,2.0,79,0.00,,,0.00,Wunderground v.1.15,2013-12-07 04:52:00,
2013-12-06 23:02:00,2.4,-2.4,30.49,West,269,2.0,2.0,80,0.00,,,0.00,Wunderground v.1.15,2013-12-07 05:02:00,
2013-12-06 23:12:00,2.2,-2.6,30.49,WSW,248,2.0,2.0,80,0.00,,,0.00,Wunderground v.1.15,2013-12-07 05:12:00,
2013-12-06 23:22:00,2.0,-2.8,30.50,NW,316,3.0,3.0,80,0.00,,,0.00,Wunderground v.1.15,2013-12-07 05:22:00,
2013-12-06 23:32:00,1.7,-3.0,30.50,NW,305,2.0,2.0,80,0.00,,,0.00,Wunderground v.1.15,2013-12-07 05:32:00,
2013-12-06 23:42:00,1.6,-2.9,30.50,WNW,298,2.0,2.0,81,0.00,,,0.00,Wunderground v.1.15,2013-12-07 05:42:00,
2013-12-06 23:52:00,1.4,-3.1,30.50,NW,304,2.0,2.0,81,0.00,,,0.00,Wunderground v.1.15,2013-12-07 05:52:00,